Torna al catalogo

ONEWEB-0643

AttivoComunicazioniPO
NORAD 55807·PAYLOAD·🇬🇧 United Kingdom

Lanciato Mar 9, 2023 da Cape Canaveral Space Force Station

Loading…

Prossimi Passaggi (prossime 24 ore)

TLE

AggiornatoSource: CelesTrak SupGP

Epoca: Sep 14, 2026, 15:09 UTC

1 55807C 23029M   26257.63140463 -.00001274  00000+0 -34416-2 0  2572
2 55807  87.8882 271.8841 0001610  73.6595 158.0143 13.14501667    19

Traccia ONEWEB-0643 in tempo reale con AllMySat

Download on the App Store